Wind_Speed
7 8 7 7 5 4 5 6 6 5 7 7 9 9 11 11 11 11 14 14 13 13 12 12 14 14 14 14 15 15 15 13 13 13 10 9 9 8 7 7 7 7 7
7 6 7 8 7 8 7 6 6 6 8 7 9 10 10 12 14 15 16 18 18 17 16 15 14 14 14 15 15 16 16 16 16 14 15 11 10 10 9 8 8 8 8
9 7 6 5 6 6 7 7 10 11 12 11 11 10 12 13 13 15 17 17 19 22 23 19 17 17 17 16 15 15 17 17 16 16 16 13 12 10 10 10 9 10 9
10 9 8 9 8 7 9 10 10 10 11 11 13 14 14 17 16 14 17 19 19 21 22 24 22 19 18 18 18 16 17 18 18 16 15 16 13 11 10 10 10 10 11
10 10 10 8 8 9 10 10 10 12 14 15 17 19 15 17 19 18 22 24 19 16 17 18 22 19 17 16 17 18 17 18 17 18 18 17 16 15 12 11 9 10 12
9 11 10 9 10 12 15 15 15 15 18 20 19 18 21 20 21 20 20 14 11 14 18 19 18 15 14 13 12 13 16 17 18 18 18 20 19 18 17 14 12 9 10
12 12 14 13 14 15 16 16 16 17 19 19 22 22 24 21 21 18 14 11 14 18 19 18 14 13 13 14 15 15 14 15 17 17 18 17 19 21 22 22 17 16 10
15 15 16 16 16 18 18 19 20 22 22 22 23 24 21 20 19 11 13 16 16 17 14 14 14 13 13 12 15 15 16 16 17 18 20 19 17 16 18 24 17 13 11
17 18 18 20 20 22 23 23 23 24 24 25 25 21 10 5 5 5 10 14 14 12 9 12 13 14 16 16 16 16 15 14 15 18 20 20 20 19 18 18 24 19 16
16 18 19 20 20 22 23 24 23 23 21 21 21 20 21 21 15 11 14 14 10 10 6 9 15 19 19 15 15 14 14 16 17 17 17 18 18 19 19 17 20 24 21
18 18 20 21 22 22 23 22 22 22 21 19 18 18 17 18 19 21 21 21 14 17 15 16 18 18 18 14 12 13 14 16 16 17 17 18 18 19 17 19 19 24 27
19 19 21 22 23 23 23 23 22 22 22 21 18 19 17 20 20 21 23 24 21 18 17 19 17 19 15 16 15 17 18 17 19 19 18 17 17 19 22 25 19 19 25
20 23 24 22 22 22 23 23 24 24 23 22 22 20 17 20 22 22 25 22 17 14 11 16 16 19 17 16 17 18 21 19 21 20 18 18 20 22 22 22 23 24 23
22 22 22 22 21 22 21 23 22 22 19 18 17 16 17 21 20 24 25 15 16 13 11 16 18 16 18 16 19 22 20 18 19 16 14 13 15 16 17 14 13 16 10
21 22 22 23 22 21 20 20 19 19 16 14 13 14 13 15 15 16 18 21 18 13 14 18 16 16 16 20 21 21 17 14 13 11 12 11 8 8 8 3 7 7 14
24 24 23 23 22 21 19 18 16 16 16 15 14 15 14 16 17 19 21 21 18 16 15 14 16 15 18 21 19 15 11 11 11 11 9 6 5 3 1 7 7 10 14
25 24 24 22 21 19 18 17 16 16 15 16 16 18 19 19 20 19 17 15 14 14 17 20 20 18 20 17 14 11 10 12 12 11 10 6 3 3 3 6 7 6 7
25 23 21 20 20 19 18 17 18 16 16 15 15 14 13 13 13 13 13 14 15 13 15 16 16 16 14 12 11 9 9 10 10 9 9 8 8 9 10 10 11 14 15
23 21 19 18 18 18 18 18 19 17 16 15 15 14 13 14 14 13 13 12 12 13 13 14 11 13 10 8 9 9 9 10 10 10 9 9 9 10 13 14 15 16 17
20 18 17 17 18 19 18 18 17 17 16 15 14 14 14 14 13 11 11 11 12 10 9 9 9 7 8 8 7 7 7 10 11 11 11 12 12 11 12 13 14 14 14
16 15 14 16 16 16 16 16 15 16 15 15 13 12 12 12 11 10 9 10 9 9 10 8 7 7 6 7 8 9 10 10 12 13 11 12 13 12 12 14 14 14 13
13 12 14 14 14 13 11 11 11 12 12 12 10 10 10 9 9 8 8 9 8 8 9 9 8 7 8 9 11 10 10 10 9 12 11 11 11 10 11 11 12 12 13
11 12 12 12 11 10 10 10 12 10 9 9 9 8 6 7 6 6 6 6 6 6 8 9 9 10 11 11 12 12 11 10 10 10 9 6 6 5 7 8 7 7 8
11 12 11 10 11 8 7 8 7 7 7 7 7 7 6 6 6 6 6 7 7 7 8 9 9 10 10 10 10 9 8 8 7 7 6 5 5 5 7 9 8 8 8
12 11 12 12 9 7 7 7 7 7 7 6 8 6 6 6 4 7 6 9 8 7 7 8 8 9 9 9 9 8 7 6 4 5 6 6 7 9 9 7 5 6 6
12 12 13 11 9 8 6 6 6 7 7 7 7 6 7 7 7 7 8 9 7 7 6 6 7 7 7 6 7 5 5 5 4 4 4 7 9 10 6 6 5 11 11
Wind_Direction
224 206 205 237 246 246 248 247 280 268 298 320 303 310 317 315 310 304 306 312 312 310 312 312 311 310 309 313 314 321 327 332 337 330 321 309 305 303 304 302 300 299 301
238 216 207 229 228 234 245 252 252 268 276 277 294 282 286 300 309 312 313 314 315 313 307 301 298 297 300 304 305 310 314 319 325 334 331 329 314 307 303 301 296 293 294
225 223 206 260 259 249 254 245 253 257 266 273 285 308 307 296 301 309 309 305 304 306 309 306 296 288 287 287 289 291 294 299 306 316 325 335 335 329 306 293 288 286 287
224 221 231 228 240 263 273 271 270 277 281 282 282 279 275 287 289 288 291 284 284 291 297 304 302 292 285 281 281 282 283 285 291 294 302 306 314 319 318 303 286 279 277
226 232 231 241 261 266 265 272 268 269 272 273 272 276 280 275 283 291 285 292 292 292 294 292 300 294 295 288 280 277 274 279 284 284 291 292 294 297 300 306 304 284 284
242 243 246 245 243 250 260 266 272 279 278 281 278 271 279 281 286 293 295 302 305 279 280 289 301 299 298 295 290 282 272 266 273 276 275 282 289 290 292 286 287 293 285
220 239 253 241 251 259 259 265 275 276 275 276 278 282 283 289 296 290 290 287 263 274 289 300 295 290 285 285 286 282 277 272 264 275 274 274 272 277 279 274 279 277 280
230 234 243 248 256 257 263 267 268 270 275 276 279 285 299 301 305 270 246 248 264 284 290 299 304 292 291 284 277 287 291 287 281 277 272 268 266 272 273 256 232 254 249
240 253 260 265 266 267 269 273 270 272 274 275 272 275 286 274 326 265 250 264 287 299 324 327 314 301 293 284 288 292 290 284 282 280 276 274 268 272 281 266 246 248 241
259 262 266 271 275 279 282 283 281 279 276 273 271 264 260 264 277 278 276 271 298 275 274 291 289 284 292 296 301 295 289 287 289 286 282 277 276 273 276 280 257 246 237
266 270 274 278 279 280 280 280 278 278 278 275 270 262 263 266 262 258 270 260 261 271 293 293 283 281 292 294 306 298 291 289 292 291 286 281 273 267 263 264 262 255 235
274 278 278 279 280 279 277 277 276 274 272 271 267 266 249 254 261 266 261 269 263 260 279 285 273 284 296 300 309 310 307 305 299 295 290 283 278 270 269 263 260 259 240
277 278 281 282 279 278 278 278 276 275 272 269 267 270 260 256 260 260 265 272 247 267 240 274 270 284 293 299 303 310 310 306 303 304 302 287 283 280 282 277 271 265 274
273 277 282 283 282 280 279 276 277 277 273 269 271 260 254 251 258 253 255 241 259 265 260 256 266 272 287 296 305 313 313 308 306 312 315 303 299 297 299 297 277 267 243
277 280 281 282 281 280 277 277 276 276 272 270 264 259 250 254 246 253 258 259 254 254 246 246 256 268 281 296 308 314 314 313 310 306 305 317 330 3 33 100 195 232 224
281 282 281 280 279 278 276 275 272 269 262 258 256 252 244 248 253 256 255 266 257 238 233 247 256 271 284 296 304 309 314 325 317 309 310 340 0 356 112 161 194 245 243
283 282 282 279 275 273 271 268 263 261 259 259 253 250 249 250 253 254 253 254 249 243 244 251 265 276 285 290 295 303 305 312 311 316 307 315 324 301 284 258 257 233 217
277 278 277 276 272 267 263 260 261 257 254 254 255 249 249 242 247 249 248 252 253 256 252 258 267 279 280 286 289 293 298 302 306 312 310 294 278 277 269 262 257 260 269
276 279 277 273 270 267 258 253 256 257 253 250 248 251 246 245 245 250 252 257 258 254 250 255 267 276 283 276 283 283 287 290 297 306 305 302 293 279 273 269 265 263 263
279 279 278 277 275 272 260 252 249 249 250 245 244 245 248 250 250 245 247 250 256 252 243 243 256 279 287 292 283 279 284 294 300 301 302 299 291 289 285 283 280 278 276
276 280 279 277 276 272 258 242 242 244 243 243 239 242 244 244 243 246 252 254 250 249 253 253 248 264 279 277 289 290 295 301 299 294 297 302 294 291 288 282 280 283 281
276 281 282 278 269 262 250 233 231 238 239 236 232 224 227 241 244 254 260 256 258 258 267 268 258 260 260 269 285 290 296 302 297 297 304 304 294 295 292 288 291 291 283
269 276 270 261 254 249 236 222 219 222 230 228 222 216 220 242 256 254 253 262 259 259 261 258 259 261 265 281 283 290 299 303 301 298 313 324 310 314 308 310 313 303 301
260 262 253 247 246 231 231 219 209 204 211 214 224 231 236 243 257 272 277 283 276 275 268 265 266 271 276 281 285 292 296 296 302 307 329 336 325 332 317 307 312 310 310
247 247 246 247 235 221 207 197 200 207 220 224 231 236 246 248 272 272 275 273 272 269 263 264 266 270 273 275 277 284 292 298 300 300 321 324 325 330 319 305 314 305 295
240 238 242 239 231 217 215 215 216 216 224 229 234 238 253 270 271 270 272 268 267 272 274 269 271 271 273 279 279 281 290 293 297 292 299 318 328 334 329 322 334 314 308
Height
1570 1570 1571 1572 1574 1575 1575 1576 1577 1578 1578 1578 1578 1578 1578 1577 1576 1576 1574 1573 1572 1571 1570 1569 1568 1566 1565 1564 1563 1562 1561 1561 1560 1559 1558 1557 1557 1556 1556 1556 1556 1556 1556
1568 1570 1570 1572 1572 1573 1575 1575 1575 1577 1577 1577 1577 1577 1576 1575 1575 1574 1573 1571 1570 1569 1568 1567 1566 1565 1564 1563 1562 1560 1559 1558 1558 1558 1558 1557 1555 1555 1555 1555 1555 1555 1555
1567 1569 1570 1571 1572 1572 1573 1574 1574 1574 1574 1575 1575 1574 1574 1573 1573 1572 1571 1569 1567 1565 1565 1564 1564 1563 1562 1561 1560 1559 1557 1556 1556 1556 1555 1556 1555 1554 1554 1554 1554 1553 1554
1565 1566 1568 1569 1571 1572 1572 1572 1573 1573 1573 1573 1572 1572 1572 1571 1569 1568 1568 1566 1565 1564 1562 1561 1560 1559 1558 1558 1557 1556 1555 1554 1554 1554 1554 1552 1552 1552 1552 1552 1552 1552 1552
1563 1564 1566 1568 1569 1570 1571 1570 1570 1571 1571 1570 1569 1568 1567 1566 1566 1565 1563 1562 1561 1560 1559 1557 1557 1556 1554 1553 1553 1552 1553 1552 1551 1551 1551 1550 1550 1550 1551 1550 1550 1551 1550
1561 1562 1563 1565 1566 1567 1567 1568 1568 1568 1567 1567 1565 1563 1563 1562 1561 1560 1559 1558 1558 1557 1556 1555 1553 1552 1551 1550 1549 1548 1548 1549 1548 1548 1547 1548 1547 1547 1547 1547 1548 1548 1548
1560 1559 1561 1562 1563 1563 1563 1564 1565 1564 1564 1563 1562 1560 1558 1557 1556 1555 1555 1556 1555 1553 1552 1552 1550 1549 1548 1546 1545 1544 1544 1544 1544 1545 1544 1544 1544 1543 1543 1543 1545 1545 1546
1556 1555 1556 1557 1558 1559 1559 1559 1559 1559 1559 1559 1558 1557 1553 1553 1552 1552 1552 1552 1551 1551 1549 1548 1548 1546 1545 1543 1541 1541 1541 1542 1541 1540 1539 1539 1539 1541 1540 1540 1539 1541 1542
1552 1551 1552 1553 1553 1554 1554 1554 1554 1553 1552 1553 1553 1555 1552 1551 1550 1550 1550 1549 1549 1548 1547 1547 1544 1542 1541 1540 1539 1539 1537 1537 1536 1536 1535 1534 1535 1535 1536 1536 1536 1537 1539
1547 1548 1548 1548 1548 1548 1549 1548 1548 1547 1546 1546 1546 1547 1548 1549 1548 1548 1548 1548 1547 1546 1545 1545 1542 1540 1538 1537 1535 1534 1534 1533 1532 1532 1532 1531 1530 1531 1531 1531 1531 1532 1534
1543 1544 1544 1544 1544 1543 1543 1542 1542 1541 1541 1540 1540 1542 1542 1543 1544 1544 1544 1544 1545 1543 1542 1540 1539 1538 1535 1534 1533 1531 1529 1529 1528 1527 1527 1527 1526 1525 1525 1526 1527 1528 1528
1539 1539 1540 1539 1539 1537 1537 1537 1537 1536 1536 1536 1535 1535 1536 1536 1537 1539 1539 1539 1540 1540 1539 1536 1534 1534 1532 1531 1529 1528 1525 1524 1523 1523 1522 1521 1521 1519 1519 1520 1522 1523 1525
1533 1534 1534 1533 1533 1532 1531 1531 1530 1530 1530 1529 1528 1529 1531 1532 1532 1533 1535 1534 1533 1536 1534 1533 1531 1530 1529 1527 1526 1525 1523 1520 1519 1517 1517 1516 1515 1514 1513 1515 1516 1517 1520
1529 1528 1528 1528 1528 1527 1526 1525 1524 1525 1524 1524 1524 1524 1525 1526 1526 1527 1529 1528 1530 1530 1531 1528 1526 1526 1525 1523 1522 1520 1518 1516 1515 1514 1513 1512 1510 1509 1509 1510 1510 1512 1515
1524 1524 1523 1522 1522 1522 1521 1519 1519 1519 1520 1519 1519 1521 1521 1521 1521 1523 1524 1524 1524 1525 1527 1524 1524 1522 1521 1519 1518 1516 1515 1513 1512 1511 1510 1509 1508 1508 1509 1509 1510 1512 1514
1519 1518 1517 1516 1516 1516 1516 1515 1515 1515 1516 1515 1515 1516 1516 1517 1517 1519 1520 1520 1519 1519 1521 1520 1520 1520 1518 1517 1515 1514 1512 1512 1510 1509 1508 1508 1508 1509 1510 1510 1509 1510 1512
1514 1512 1510 1510 1510 1510 1511 1510 1511 1511 1511 1512 1512 1512 1512 1512 1512 1513 1515 1514 1515 1515 1516 1515 1515 1515 1513 1513 1512 1512 1510 1510 1510 1508 1507 1507 1508 1509 1510 1510 1510 1511 1512
1508 1505 1503 1503 1504 1504 1506 1506 1505 1507 1506 1506 1507 1508 1508 1508 1508 1509 1510 1511 1511 1511 1512 1511 1511 1511 1510 1510 1509 1509 1508 1507 1507 1507 1506 1505 1506 1507 1507 1508 1509 1509 1509
1501 1499 1496 1497 1499 1499 1500 1500 1501 1502 1503 1502 1502 1503 1505 1504 1504 1505 1506 1506 1507 1507 1506 1507 1507 1506 1505 1506 1506 1506 1505 1505 1505 1504 1504 1503 1503 1503 1503 1504 1504 1505 1505
1495 1494 1493 1491 1493 1495 1494 1496 1496 1497 1499 1499 1498 1499 1501 1502 1501 1501 1501 1502 1503 1504 1503 1503 1503 1503 1501 1502 1503 1503 1503 1502 1502 1502 1501 1500 1500 1499 1499 1499 1499 1499 1500
1491 1491 1489 1489 1488 1489 1489 1490 1491 1494 1494 1497 1494 1494 1498 1498 1498 1498 1498 1499 1500 1500 1502 1499 1499 1499 1498 1499 1500 1499 1498 1499 1499 1499 1499 1497 1496 1497 1496 1495 1496 1496 1496
1487 1486 1486 1486 1485 1484 1485 1485 1486 1490 1491 1493 1491 1491 1492 1496 1495 1496 1496 1497 1496 1496 1498 1497 1495 1496 1495 1495 1496 1495 1494 1495 1497 1495 1495 1495 1493 1493 1492 1492 1492 1491 1491
1482 1484 1482 1483 1483 1482 1482 1481 1484 1485 1489 1491 1490 1489 1488 1491 1493 1493 1494 1495 1494 1493 1494 1494 1492 1494 1493 1493 1494 1492 1490 1491 1492 1493 1492 1492 1491 1490 1490 1489 1489 1489 1488
1479 1482 1480 1480 1480 1480 1480 1481 1482 1485 1488 1489 1490 1488 1487 1489 1490 1491 1491 1492 1493 1491 1492 1492 1491 1491 1491 1490 1490 1490 1488 1489 1490 1489 1489 1490 1490 1490 1489 1488 1487 1487 1486
1476 1477 1478 1479 1478 1479 1479 1480 1482 1484 1487 1485 1488 1486 1485 1487 1486 1489 1488 1490 1489 1489 1490 1489 1488 1487 1488 1487 1487 1486 1486 1487 1488 1488 1488 1488 1488 1487 1486 1485 1485 1485 1484
1473 1475 1476 1476 1476 1478 1478 1480 1481 1482 1483 1485 1486 1484 1485 1484 1484 1486 1486 1488 1486 1487 1487 1487 1486 1485 1485 1485 1485 1484 1484 1485 1486 1486 1486 1487 1486 1485 1485 1483 1483 1483 1482